GW0890 Weather Reports


time (UTC)temp
C
wind
direction
speed
KPH
gust
KPH
rain 1hr
cm
rain 24hr
cm
rain mn
cm
humidity
%
barometer
mb
20260510230045 22 144 3.2 11.3 0.00 0.00 0.00 61 1013.7
20260510224540 22 140 4.8 14.5 0.00 0.00 0.00 60 1013.7
20260510223008 22 198 6.4 12.9 0.00 0.00 0.00 60 1013.6
20260510221507 22 167 0.0 17.7 0.00 0.00 0.00 62 1013.8
20260510220003 22 113 4.8 17.7 0.00 0.00 0.00 63 1013.4
20260510214503 22 197 4.8 19.3 0.00 0.00 0.00 63 1013.4
20260510213002 23 138 11.3 19.3 0.00 0.00 0.00 62 1013.3
20260510211503 24 145 6.4 17.7 0.00 0.00 0.00 61 1012.9
20260510204611 23 249 3.2 12.9 0.00 0.00 0.00 62 1012.9
20260510203059 23 142 3.2 20.9 0.00 0.00 0.00 65 1012.9
20260510201559 23 153 8.0 12.9 0.00 0.00 0.00 63 1012.8
20260510200116 23 202 8.0 14.5 0.00 0.00 0.00 63 1013.0
20260510194600 22 28 6.4 11.3 0.00 0.00 0.00 67 1013.1
20260510193106 22 132 3.2 8.0 0.00 0.00 0.00 70 1013.1
20260510191602 21 96 4.8 9.7 0.00 0.00 0.00 75 1013.5
20260510190051 22 59 11.3 17.7 0.00 0.00 0.00 64 1013.5
20260510184549 23 159 3.2 14.5 0.00 0.00 0.00 59 1013.3
20260510183055 23 180 8.0 19.3 0.00 0.00 0.00 59 1013.2
20260510181547 24 88 4.8 14.5 0.00 0.00 0.00 59 1013.2
20260510180045 23 50 9.7 16.1 0.00 0.00 0.00 61 1013.1
20260510174545 23 109 3.2 9.7 0.00 0.00 0.00 61 1013.2
20260510173053 23 112 6.4 14.5 0.00 0.00 0.00 61 1013.2
20260510173048 23 113 6.4 14.5 0.00 0.00 0.00 61 1013.2
20260510171546 23 148 4.8 12.9 0.00 0.00 0.00 62 1013.2
20260510170037 23 30 9.7 17.7 0.00 0.00 0.00 62 1013.3
20260510164542 22 129 1.6 6.4 0.00 0.00 0.00 64 1013.2
20260510163033 22 120 3.2 9.7 0.00 0.00 0.00 61 1013.3
20260510161529 23 74 6.4 11.3 0.00 0.00 0.00 61 1013.3
20260510160030 22 116 6.4 14.5 0.00 0.00 0.00 62 1013.2
20260510154520 21 98 3.2 16.1 0.00 0.00 0.00 63 1013.3
20260510153030 21 61 9.7 20.9 0.00 0.00 0.00 62 1013.3
20260510151517 21 86 4.8 16.1 0.00 0.00 0.00 63 1013.1
20260510150016 21 15 9.7 17.7 0.00 0.00 0.00 65 1012.8
20260510144525 21 291 1.6 19.3 0.00 0.00 0.00 69 1013.1
20260510143010 21 56 11.3 16.1 0.00 0.00 0.00 66 1013.3
20260510141505 20 24 8.0 16.1 0.00 0.00 0.00 70 1013.2
20260510140101 18 34 8.0 16.1 0.00 0.00 0.00 71 1013.1
20260510134604 18 55 9.7 17.7 0.00 0.00 0.00 74 1013.3
20260510133102 17 94 0.0 11.3 0.00 0.00 0.00 81 1013.3
20260510131559 16 83 0.0 0.0 0.00 0.00 0.00 87 1013.2
20260510130042 15 86 0.0 3.2 0.00 0.00 0.00 91 1013.1
20260510124540 15 86 0.0 1.6 0.00 0.00 0.00 96 1013.2
20260510123037 13 86 0.0 0.0 0.00 0.00 0.00 98 1013.0
20260510121531 12 85 0.0 1.6 0.00 0.00 0.00 98 1012.9
20260510120030 11 85 0.0 0.0 0.00 0.00 0.00 98 1012.9
20260510114557 10 85 0.0 0.0 0.00 0.00 0.00 97 1012.7
20260510113054 8 85 0.0 0.0 0.00 0.00 0.00 97 1012.6
20260510111551 8 84 0.0 1.6 0.00 0.00 0.00 97 1012.4
20260510110049 8 85 0.0 0.0 0.00 0.00 0.00 96 1012.0
20260510104547 8 85 0.0 0.0 0.00 0.00 0.00 96 1011.8
20260510103045 8 85 0.0 1.6 0.00 0.00 0.00 96 1011.6
20260510101543 8 84 0.0 3.2 0.00 0.00 0.00 96 1011.4
20260510100042 8 82 0.0 3.2 0.00 0.00 0.00 96 1011.5
20260510094538 8 81 0.0 3.2 0.00 0.00 0.00 96 1011.2
20260510093037 8 81 0.0 3.2 0.00 0.00 0.00 96 1011.1
20260510091534 8 80 0.0 1.6 0.00 0.00 0.00 96 1011.0
20260510090031 8 80 0.0 0.0 0.00 0.00 0.00 96 1010.8
20260510084530 8 80 0.0 0.0 0.00 0.00 0.00 96 1010.8
20260510083029 8 80 0.0 0.0 0.00 0.00 0.00 96 1010.5
20260510081532 9 80 0.0 0.0 0.00 0.00 0.00 96 1010.3
20260510080025 9 78 0.0 0.0 0.00 0.00 0.00 96 1010.3
20260510074525 10 78 0.0 6.4 0.00 0.00 0.00 96 1010.2
20260510073032 9 76 0.0 1.6 0.00 0.00 0.00 96 1010.2
20260510071520 9 76 0.0 0.0 0.00 0.00 0.00 95 1010.1
20260510070019 9 76 0.0 0.0 0.00 0.00 0.00 95 1010.1
20260510064519 10 76 0.0 3.2 0.00 0.00 0.00 95 1010.0
20260510063015 10 76 0.0 1.6 0.00 0.00 0.00 95 1010.3
20260510061546 10 75 0.0 6.4 0.00 0.00 0.00 95 1010.3
20260510060044 10 71 0.0 0.0 0.00 0.00 0.00 95 1010.3
20260510054540 10 70 0.0 0.0 0.00 0.00 0.00 94 1010.4
20260510053040 10 70 0.0 0.0 0.00 0.00 0.00 94 1010.3
20260510051543 10 71 0.0 0.0 0.00 0.00 0.00 94 1010.4
20260510050036 11 70 0.0 0.0 0.00 0.00 0.00 94 1010.5
20260510044544 11 70 0.0 0.0 0.00 0.00 0.00 94 1010.5
20260510043003 11 70 0.0 0.0 0.00 0.00 0.00 93 1010.7
20260510041601 11 65 0.0 0.0 0.00 0.00 0.00 93 1010.7
20260510040109 11 63 0.0 0.0 0.00 0.00 0.00 92 1010.7
20260510034556 12 64 0.0 0.0 0.00 0.00 0.00 92 1010.7
20260510033055 12 63 0.0 0.0 0.00 0.00 0.00 91 1010.5
20260510031558 12 61 0.0 0.0 0.00 0.00 0.00 90 1010.5
20260510030050 12 53 0.0 0.0 0.00 0.00 0.00 90 1010.3
20260510024549 13 51 0.0 0.0 0.00 0.00 0.00 88 1010.2
20260510023047 13 47 0.0 0.0 0.00 0.00 0.00 86 1010.1
20260510021545 14 47 0.0 0.0 0.00 0.00 0.00 84 1009.7
20260510020041 15 44 0.0 0.0 0.00 0.00 0.00 80 1009.5
20260510014540 16 44 0.0 0.0 0.00 0.00 0.00 76 1009.2
20260510013039 17 44 0.0 0.0 0.00 0.00 0.00 73 1009.0
20260510011539 18 44 0.0 0.0 0.00 0.00 0.00 71 1008.8
20260510010036 18 44 0.0 3.2 0.00 0.00 0.00 70 1008.7
20260510004536 18 44 1.6 11.3 0.00 0.00 0.00 69 1008.4
20260510003035 19 34 6.4 12.9 0.00 0.00 0.00 68 1008.3
20260510001534 20 21 4.8 14.5 0.00 0.00 0.00 67 1008.0
20260510000030 20 71 8.0 12.9 0.00 0.00 0.00 65 1008.1
20260509234535 20 38 4.8 11.3 0.00 0.00 0.00 64 1008.0
20260509233030 21 40 8.0 20.9 0.00 0.00 0.00 63 1007.9
20260509231530 21 23 9.7 16.1 0.00 0.00 0.00 61 1007.9